Weather in Molebka

Russia / Perm Krai     57°14′14″N   57°56′11″E
temp.,
°C
wind,
m/s
gust,
m/s
humid.,
%
clouds,
%
prec.,
mm/h
press.,
hPa
HPBL,
m
4 march, thu
thu423:00−5sw389792 1.9 998392
02:00−6sw2697100 0.6 997226
05:00−8w3696100 1.1 997246
08:00−9w3895100 0.8 996321
11:00−8wsw4893100 1.1 997465
14:00−6wsw4892100 0.4 997691
17:00−5sw5990100 0.7 996754
20:00−8s41292100 0.1 995534
5 march, fri
fri523:00−6s51394100 0.6 992826
02:00−5ssw51495100 2.4 9881130
05:00−6sw51293100 2.7 988890
08:00−7wsw71591100 1.3 991805
11:00−8wsw61292100 1.6 994720
14:00−7wsw61191100 0.4 996806
17:00−7w5991100 0.8 999765
20:00−10w51193100 0.3 1002511
6 march, sat
sat623:00−14w399696 0.3 1005208
02:00−17wsw259873 0.0 100696
05:00−15sw379786 0.3 1008254
08:00−14sw41095100 0.6 1008400
11:00−12w5991100 0.8 1008881
14:00−11w5986100 0.3 10091089
17:00−12w4787100 0.4 1010874
20:00−17w239689 0.0 101125
7 march, sun
sun723:00−21wsw1110049 0.0 101220
02:00−22ssw1110050 0.0 101120
05:00−23ssw1110061 0.0 101120
08:00−24sw1110063 0.0 101020
11:00−16wnw129269 0.0 1010279
14:00−13wnw2386100 0.0 1009584
17:00−14w2389100 0.1 1009560
20:00−20ssw119981 0.0 101020
8 march, mon
mon823:00−19ssw2210087 0.1 101129
02:00−22s2310097 0.1 101141
05:00−23sse239879 0.1 101038
08:00−20se389796 0.0 1007248
11:00−15sse499598 0.4 1005377
14:00−11s4991100 0.8 1002699
17:00−9s4992100 1.6 1002831
20:00−11ssw4129186 0.2 1003391